SL-3 R/B (14208 NORAD) Tracking and Keplerian Element Data

This shows tracking and keplerian element data for the satellite.

Feedback or suggestion? Click here.




ElementValue
Catalog14208
NameSL-3 R/B
Epoch Orbit20999
Epoch Day12.91560584
Epoch Year2024
RAAN351.8087
Inclination97.553
Eccentricity0.003462
Argument of Perigee120.7717
Mean Anonmoly239.6934
Mean Motion15.18736097
Decay Rate7.175E-05
L11 14208U 83075B 24012.91560584 .00007175 00000+0 34340-3 0 9991
L22 14208 97.5530 351.8087 0034620 120.7717 239.6934 15.18736097209990



Live tracking and technical data element details for SL-3 R/B (NORAD 14208). SL-3 R/B can be tracked NOW for your location showing map with azimuth and elevation plus other details from your city location.







IsCatalogInMostPopularTable: catalog: 14208, numindb: 339
Update: records affected: 1



GetName: 14208 SL-3 R/B

Hit Count: updated at: Fri, 19 Apr 2024 12:48:14 GMT